• In Hungary
  • List of Countries
  • For 7 days
  • Water Temperature
  • Satellite Maps
  • Weather Map
  • News
  • Weather Widgets
  • user-avatar
    Login

    Hourly Weather Puente del Inca

    Today, 23 February, Friday

    Time Temperature Precipitation Wind Pressure Humidity
    00:00 +5°C° 0 mm 1 mps 489 mmHg 62%
    01:00 +5°C° 0 mm 1 mps 488 mmHg 62%
    02:00 +5°C° 0 mm 1 mps 488 mmHg 63%
    03:00 +4°C° 0 mm 1 mps 487 mmHg 64%
    04:00 +4°C° 0 mm 1 mps 487 mmHg 65%
    05:00 +4°C° 0 mm 1 mps 488 mmHg 60%
    06:00 +5°C° 0 mm 1 mps 488 mmHg 55%
    07:00 +5°C° 0 mm 1 mps 489 mmHg 50%
    08:00 +5°C° 0 mm 2 mps 489 mmHg 43%
    09:00 +6°C° 0 mm 2 mps 490 mmHg 36%
    10:00 +7°C° 0 mm 2 mps 491 mmHg 29%
    11:00 +8°C° 0.1 mm 3 mps 491 mmHg 30%
    12:00 +8°C° 0.1 mm 3 mps 491 mmHg 31%
    13:00 +8°C° 0.1 mm 4 mps 492 mmHg 33%
    14:00 +7°C° 0.7 mm 4 mps 491 mmHg 38%
    15:00 +8°C° 0.7 mm 3 mps 491 mmHg 43%
    16:00 +7°C° 0.7 mm 3 mps 490 mmHg 48%
    17:00 +5°C° 0.6 mm 3 mps 490 mmHg 52%
    18:00 +5°C° 0.6 mm 2 mps 490 mmHg 56%
    19:00 +4°C° 0.6 mm 2 mps 490 mmHg 60%
    20:00 +4°C° 0.1 mm 2 mps 490 mmHg 61%
    21:00 +4°C° 0.1 mm 2 mps 490 mmHg 62%
    22:00 +4°C° 0.1 mm 1 mps 490 mmHg 63%
    23:00 +3°C° 0.1 mm 2 mps 489 mmHg 64%

    Tomorrow, 24 February, Saturday

    Time Temperature Precipitation Wind Pressure Humidity
    00:00 +3°C° 0.1 mm 2 mps 489 mmHg 64%
    01:00 +3°C° 0.1 mm 2 mps 489 mmHg 64%
    02:00 +2°C° 0 mm 2 mps 488 mmHg 65%
    03:00 +2°C° 0 mm 2 mps 488 mmHg 65%
    04:00 +2°C° 0 mm 2 mps 488 mmHg 65%
    05:00 +2°C° 0 mm 2 mps 488 mmHg 60%
    06:00 +2°C° 0 mm 2 mps 488 mmHg 55%
    07:00 +3°C° 0 mm 2 mps 489 mmHg 50%
    08:00 +4°C° 0 mm 2 mps 490 mmHg 44%
    09:00 +5°C° 0 mm 2 mps 490 mmHg 38%
    10:00 +5°C° 0 mm 3 mps 491 mmHg 33%
    11:00 +7°C° 0 mm 3 mps 491 mmHg 33%
    12:00 +7°C° 0 mm 3 mps 492 mmHg 33%
    13:00 +7°C° 0 mm 4 mps 492 mmHg 34%
    14:00 +7°C° 0.1 mm 4 mps 492 mmHg 37%
    15:00 +7°C° 0.1 mm 4 mps 491 mmHg 41%
    16:00 +6°C° 0.1 mm 4 mps 491 mmHg 45%
    17:00 +5°C° 0.3 mm 3 mps 491 mmHg 51%
    18:00 +5°C° 0.3 mm 2 mps 490 mmHg 56%
    19:00 +4°C° 0.3 mm 2 mps 490 mmHg 62%
    20:00 +4°C° 0.1 mm 2 mps 490 mmHg 61%
    21:00 +4°C° 0.1 mm 2 mps 490 mmHg 61%
    22:00 +4°C° 0.1 mm 2 mps 490 mmHg 61%
    23:00 +4°C° 0 mm 1 mps 489 mmHg 61%

    Day after tomorrow, 25 February, Sunday

    Time Temperature Precipitation Wind Pressure Humidity
    00:00 +4°C° 0 mm 1 mps 489 mmHg 62%
    01:00 +4°C° 0 mm 1 mps 489 mmHg 62%
    02:00 +4°C° 0 mm 1 mps 488 mmHg 61%
    03:00 +3°C° 0 mm 1 mps 488 mmHg 61%
    04:00 +3°C° 0 mm 1 mps 487 mmHg 61%
    05:00 +3°C° 0 mm 1 mps 488 mmHg 57%
    06:00 +4°C° 0 mm 1 mps 489 mmHg 52%
    07:00 +5°C° 0 mm 1 mps 489 mmHg 48%
    08:00 +6°C° 0 mm 1 mps 490 mmHg 42%
    09:00 +6°C° 0 mm 2 mps 491 mmHg 36%
    10:00 +7°C° 0 mm 2 mps 492 mmHg 30%
    11:00 +8°C° 0.1 mm 3 mps 492 mmHg 30%
    12:00 +9°C° 0.1 mm 3 mps 492 mmHg 30%
    13:00 +9°C° 0.1 mm 3 mps 493 mmHg 30%
    14:00 +9°C° 0.2 mm 3 mps 492 mmHg 33%
    15:00 +9°C° 0.2 mm 3 mps 492 mmHg 36%
    16:00 +9°C° 0.2 mm 3 mps 492 mmHg 39%
    17:00 +8°C° 0.3 mm 3 mps 491 mmHg 44%
    18:00 +7°C° 0.3 mm 2 mps 491 mmHg 50%
    19:00 +7°C° 0.3 mm 1 mps 490 mmHg 55%
    20:00 +6°C° 0.1 mm 1 mps 490 mmHg 56%
    21:00 +6°C° 0.1 mm 1 mps 490 mmHg 57%
    22:00 +6°C° 0.1 mm 1 mps 490 mmHg 58%
    23:00 +5°C° 0 mm 1 mps 490 mmHg 58%

    26 February, Monday

    Time Temperature Precipitation Wind Pressure Humidity
    00:00 +5°C° 0 mm 1 mps 489 mmHg 58%
    01:00 +5°C° 0 mm 1 mps 489 mmHg 58%
    02:00 +4°C° 0 mm 1 mps 488 mmHg 57%
    03:00 +4°C° 0 mm 1 mps 488 mmHg 57%
    04:00 +4°C° 0 mm 1 mps 488 mmHg 56%
    05:00 +4°C° 0 mm 1 mps 488 mmHg 52%
    06:00 +5°C° 0 mm 1 mps 489 mmHg 48%
    07:00 +6°C° 0 mm 1 mps 490 mmHg 44%
    08:00 +7°C° 0 mm 1 mps 490 mmHg 39%
    09:00 +7°C° 0 mm 2 mps 491 mmHg 33%
    10:00 +8°C° 0 mm 2 mps 492 mmHg 28%
    11:00 +9°C° 0.1 mm 3 mps 492 mmHg 29%
    12:00 +9°C° 0.1 mm 3 mps 492 mmHg 29%
    13:00 +10°C° 0.1 mm 3 mps 492 mmHg 30%
    14:00 +10°C° 0.4 mm 3 mps 492 mmHg 33%
    15:00 +9°C° 0.4 mm 3 mps 491 mmHg 36%
    16:00 +9°C° 0.4 mm 3 mps 491 mmHg 39%
    17:00 +8°C° 0.4 mm 3 mps 490 mmHg 45%
    18:00 +7°C° 0.4 mm 2 mps 490 mmHg 51%
    19:00 +6°C° 0.4 mm 2 mps 490 mmHg 57%
    20:00 +5°C° 0.1 mm 2 mps 489 mmHg 57%
    21:00 +6°C° 0.1 mm 1 mps 489 mmHg 57%
    22:00 +5°C° 0.1 mm 1 mps 489 mmHg 57%
    23:00 +5°C° 0 mm 1 mps 488 mmHg 55%

    27 February, Tuesday

    Time Temperature Precipitation Wind Pressure Humidity
    00:00 +5°C° 0 mm 1 mps 488 mmHg 53%
    01:00 +5°C° 0 mm 1 mps 488 mmHg 52%
    02:00 +4°C° 0 mm 1 mps 487 mmHg 51%
    03:00 +4°C° 0 mm 1 mps 487 mmHg 50%
    04:00 +3°C° 0 mm 1 mps 487 mmHg 49%
    05:00 +4°C° 0 mm 1 mps 488 mmHg 44%
    06:00 +4°C° 0 mm 1 mps 488 mmHg 40%
    07:00 +5°C° 0 mm 1 mps 489 mmHg 35%
    08:00 +6°C° 0 mm 1 mps 490 mmHg 32%
    09:00 +6°C° 0 mm 2 mps 490 mmHg 29%
    10:00 +7°C° 0 mm 2 mps 491 mmHg 25%
    11:00 +8°C° 0 mm 2 mps 491 mmHg 27%
    12:00 +8°C° 0 mm 3 mps 491 mmHg 29%
    13:00 +9°C° 0 mm 3 mps 492 mmHg 31%
    14:00 +8°C° 0.2 mm 3 mps 491 mmHg 36%
    15:00 +8°C° 0.2 mm 3 mps 491 mmHg 41%
    16:00 +7°C° 0.2 mm 3 mps 490 mmHg 46%
    17:00 +7°C° 0.4 mm 2 mps 490 mmHg 52%
    18:00 +6°C° 0.4 mm 2 mps 490 mmHg 57%
    19:00 +6°C° 0.4 mm 1 mps 489 mmHg 62%
    20:00 +6°C° 0.2 mm 1 mps 489 mmHg 61%
    21:00 +6°C° 0.2 mm 1 mps 489 mmHg 60%
    22:00 +5°C° 0.2 mm 1 mps 489 mmHg 59%
    23:00 +5°C° 0.2 mm 1 mps 489 mmHg 61%

    28 February, Wednesday

    Time Temperature Precipitation Wind Pressure Humidity
    00:00 +5°C° 0.2 mm 1 mps 489 mmHg 63%
    01:00 +4°C° 0.2 mm 2 mps 489 mmHg 65%
    02:00 +4°C° 0.4 mm 1 mps 488 mmHg 67%
    03:00 +4°C° 0.4 mm 1 mps 488 mmHg 69%
    04:00 +4°C° 0.4 mm 1 mps 488 mmHg 70%
    05:00 +4°C° 0.2 mm 1 mps 488 mmHg 69%
    06:00 +5°C° 0.2 mm 1 mps 489 mmHg 67%
    07:00 +5°C° 0.2 mm 1 mps 489 mmHg 65%
    08:00 +5°C° 0.3 mm 1 mps 490 mmHg 63%
    09:00 +5°C° 0.3 mm 2 mps 490 mmHg 61%
    10:00 +5°C° 0.3 mm 2 mps 490 mmHg 60%
    11:00 +5°C° 0.5 mm 2 mps 490 mmHg 62%
    12:00 +5°C° 0.5 mm 2 mps 490 mmHg 64%
    13:00 +4°C° 0.5 mm 3 mps 490 mmHg 67%
    14:00 +4°C° 1.3 mm 3 mps 489 mmHg 71%
    15:00 +3°C° 1.3 mm 3 mps 489 mmHg 75%
    16:00 +3°C° 1.3 mm 3 mps 488 mmHg 79%
    17:00 +3°C° 1.5 mm 2 mps 488 mmHg 80%
    18:00 +3°C° 1.5 mm 2 mps 488 mmHg 80%
    19:00 +4°C° 1.5 mm 1 mps 488 mmHg 81%
    20:00 +3°C° 0.7 mm 1 mps 488 mmHg 80%
    21:00 +3°C° 0.7 mm 1 mps 488 mmHg 80%
    22:00 +3°C° 0.7 mm 1 mps 488 mmHg 79%
    23:00 +3°C° 0.6 mm 1 mps 487 mmHg 79%
    Show more